Stations météo

réclame
Mon MeteoGroup
Goteborg/Landvetter, Suède (2526): Température de l'air & dewpoint: 18.10.2018 07:00:00 - 24.10.2018 07:00:00 (CEST)Goteborg/Landvetter, Suède (2526): Vitesse du vent: 18.10.2018 07:00:00 - 24.10.2018 07:00:00 (CEST)Goteborg/Landvetter, Suède (2526): Direction du vent: 18.10.2018 07:00:00 - 24.10.2018 07:00:00 (CEST)Goteborg/Landvetter, Suède (2526): reduced air pressure: 18.10.2018 07:00:00 - 24.10.2018 07:00:00 (CEST)Goteborg/Landvetter, Suède (2526): visibility: 18.10.2018 07:00:00 - 24.10.2018 07:00:00 (CEST)
Date & Time tt [°C] td [°C] ff [km/h] ff [knt] dd ppp [hPa] vv [km]
24.10.2018 07:00:00 - - - - - - -
24.10.2018 06:00:00 1,7 -4,4 14 8 NW 1008,1 50
24.10.2018 05:00:00 2,1 -3,8 14 8 NW 1007,1 50
24.10.2018 04:00:00 2,1 -3,0 14 8 NW 1005,9 50
24.10.2018 03:00:00 1,7 -2,4 7 4 NW 1005,3 50
24.10.2018 02:00:00 1,8 -2,0 11 6 NW 1004,8 50
24.10.2018 01:00:00 2,1 -1,7 11 6 NW 1004,4 50
24.10.2018 00:00:00 2,6 -1,6 11 6 NW 1003,5 50
23.10.2018 23:00:00 3,9 -1,1 14 8 NNW 1002,7 50
23.10.2018 22:00:00 4,9 0,3 18 10 NNW 1001,4 50
23.10.2018 21:00:00 6,1 1,2 25 14 N 1000,0 50
23.10.2018 20:00:00 8,7 -1,7 25 14 NW 997,6 50
23.10.2018 19:00:00 9,1 0,5 25 14 WNW 996,6 50
23.10.2018 18:00:00 8,8 1,7 18 10 WNW 996,2 50
23.10.2018 17:00:00 9,6 1,0 18 10 WNW 996,0 50
23.10.2018 16:00:00 10,7 1,0 25 14 WNW 995,6 45
23.10.2018 15:00:00 11,3 3,6 25 14 NW 995,4 45
23.10.2018 14:00:00 10,7 4,2 29 16 WNW 995,7 50
23.10.2018 13:00:00 10,6 4,5 25 14 WNW 995,8 50
23.10.2018 12:00:00 10,6 5,6 25 14 WNW 995,7 30
23.10.2018 11:00:00 10,2 6,0 25 14 WNW 995,6 45
23.10.2018 10:00:00 9,5 6,8 25 14 W 995,8 45
23.10.2018 09:00:00 8,8 7,6 25 14 W 996,1 21
23.10.2018 08:00:00 8,9 7,5 25 14 W 996,1 10
23.10.2018 07:00:00 9,4 7,7 29 16 W 996,8 9
23.10.2018 06:00:00 9,8 7,9 29 16 W 997,5 12
23.10.2018 05:00:00 9,5 7,8 40 21 WSW 998,5 17
23.10.2018 04:00:00 8,7 7,6 36 19 WSW 1000,3 11
23.10.2018 03:00:00 8,2 7,1 36 19 WSW 1003,0 4,2
23.10.2018 02:00:00 7,3 6,4 36 19 SW 1005,9 3,1
23.10.2018 01:00:00 6,7 6,0 32 18 WSW 1009,0 8
23.10.2018 00:00:00 6,5 5,4 32 18 SW 1011,8 6
22.10.2018 23:00:00 6,8 5,0 29 16 SW 1014,2 11
22.10.2018 22:00:00 7,9 4,1 25 14 WSW 1016,4 14
22.10.2018 21:00:00 8,2 3,5 25 14 W 1017,9 35
22.10.2018 20:00:00 8,4 2,8 22 12 W 1018,5 29
22.10.2018 19:00:00 7,9 2,8 18 10 WSW 1019,3 40
22.10.2018 18:00:00 7,9 2,6 22 12 WSW 1019,6 30
22.10.2018 17:00:00 8,4 2,6 22 12 WSW 1020,2 35
22.10.2018 16:00:00 8,7 2,7 25 14 W 1020,4 40
22.10.2018 15:00:00 9,4 2,3 29 16 W 1020,8 50
22.10.2018 14:00:00 9,2 2,3 29 16 W 1020,4 35
22.10.2018 13:00:00 9,7 2,8 29 16 WNW 1020,5 50
22.10.2018 12:00:00 9,1 2,2 22 12 W 1020,4 40
22.10.2018 11:00:00 9,0 1,9 25 14 W 1020,2 30
22.10.2018 10:00:00 8,5 2,1 14 8 W 1020,0 45
22.10.2018 09:00:00 7,7 2,8 18 10 W 1019,4 50
22.10.2018 08:00:00 7,8 2,9 22 12 W 1018,7 50
22.10.2018 07:00:00 8,0 3,5 22 12 W 1018,2 40
22.10.2018 06:00:00 8,1 3,2 22 12 W 1017,9 50
22.10.2018 05:00:00 8,2 4,0 22 12 W 1017,5 45
22.10.2018 04:00:00 8,9 6,5 18 10 W 1017,5 45
22.10.2018 03:00:00 8,8 6,4 22 12 W 1017,4 45
22.10.2018 02:00:00 9,5 7,8 22 12 W 1017,2 40
22.10.2018 01:00:00 10,2 9,0 25 14 W 1016,7 35
22.10.2018 00:00:00 11,0 9,8 25 14 WSW 1016,5 45
21.10.2018 23:00:00 11,9 11,4 32 18 WSW 1016,2 5
21.10.2018 22:00:00 12,1 11,2 36 19 SW 1016,3 2,4
21.10.2018 21:00:00 12,2 11,3 29 16 SW 1016,7 12
21.10.2018 20:00:00 12,1 11,0 29 16 SW 1017,2 14
21.10.2018 19:00:00 11,8 11,0 29 16 SSW 1017,8 10
21.10.2018 18:00:00 11,5 11,0 29 16 SSW 1018,0 6
21.10.2018 17:00:00 11,3 10,8 29 16 SSW 1018,6 7
21.10.2018 16:00:00 11,0 10,5 29 16 SSW 1019,7 2,5
21.10.2018 15:00:00 10,7 10,2 25 14 SSW 1020,3 6
21.10.2018 14:00:00 10,7 10,2 29 16 SSW 1020,9 6
21.10.2018 13:00:00 10,5 10,0 29 16 SSW 1021,5 4,4
21.10.2018 12:00:00 10,5 10,0 22 12 SSW 1022,1 7
21.10.2018 11:00:00 10,2 9,7 25 14 SW 1022,7 2,6
21.10.2018 10:00:00 10,0 9,5 22 12 SW 1022,8 2,9
21.10.2018 09:00:00 9,7 9,2 25 14 SSW 1022,7 4,0
21.10.2018 08:00:00 9,2 8,7 22 12 SSW 1022,7 7
21.10.2018 07:00:00 8,7 8,3 18 10 SSW 1023,1 6
21.10.2018 06:00:00 7,3 6,9 18 10 S 1023,8 21
21.10.2018 05:00:00 6,5 6,2 14 8 S 1024,0 16
21.10.2018 04:00:00 6,5 6,1 11 6 SW 1024,5 11
21.10.2018 03:00:00 5,9 5,5 11 6 SSW 1024,7 12
21.10.2018 02:00:00 5,0 4,4 14 8 SSW 1024,8 0,9
21.10.2018 01:00:00 5,9 5,3 11 6 SSW 1024,9 20
21.10.2018 00:00:00 5,0 4,4 7 4 S 1025,2 7
20.10.2018 23:00:00 5,1 4,7 7 4 S 1025,2 50
20.10.2018 22:00:00 4,9 4,3 7 4 SSW 1025,3 3,8
20.10.2018 21:00:00 5,6 4,9 4 2 SW 1025,4 35
20.10.2018 20:00:00 6,7 5,8 7 4 WSW 1025,0 50
20.10.2018 19:00:00 7,0 5,6 7 4 WSW 1024,9 50
20.10.2018 18:00:00 8,0 5,8 7 4 WSW 1024,6 50
20.10.2018 17:00:00 9,8 5,8 7 4 WSW 1024,1 50
20.10.2018 16:00:00 11,6 4,6 11 6 W 1023,8 50
20.10.2018 15:00:00 11,1 5,2 11 6 W 1023,6 50
20.10.2018 14:00:00 11,7 6,0 0 0 N 1023,4 50
20.10.2018 13:00:00 10,3 6,6 7 4 WNW 1023,2 40
20.10.2018 12:00:00 10,8 7,7 7 4 W 1023,1 50
20.10.2018 11:00:00 9,8 8,1 7 4 WNW 1022,8 40
20.10.2018 10:00:00 8,6 7,8 4 2 WSW 1022,3 16
20.10.2018 09:00:00 7,8 7,4 11 6 SSW 1021,8 21
20.10.2018 08:00:00 7,7 7,1 14 8 SW 1021,8 7
20.10.2018 07:00:00 7,5 6,4 11 6 SW 1021,8 21
20.10.2018 06:00:00 7,0 5,5 11 6 SW 1021,7 28
20.10.2018 05:00:00 7,0 5,5 11 6 SW 1021,7 28
20.10.2018 04:00:00 5,6 4,6 11 6 SSW 1021,9 45
20.10.2018 03:00:00 5,3 4,1 7 4 SW 1022,3 50
20.10.2018 02:00:00 7,0 5,1 11 6 SW 1022,5 50
20.10.2018 01:00:00 6,8 4,6 11 6 SW 1022,4 50
20.10.2018 00:00:00 7,3 4,8 11 6 WSW 1022,4 50
19.10.2018 23:00:00 7,0 5,1 11 6 SW 1022,7 50
19.10.2018 22:00:00 6,0 4,8 11 6 SW 1022,9 50
19.10.2018 21:00:00 5,9 4,2 11 6 SSW 1023,0 50
19.10.2018 20:00:00 6,2 4,3 7 4 SSW 1022,8 50
19.10.2018 19:00:00 5,6 3,6 7 4 SSW 1022,9 50
19.10.2018 18:00:00 6,9 3,9 11 6 SW 1022,8 50
19.10.2018 17:00:00 9,4 4,4 11 6 WSW 1022,7 50
19.10.2018 16:00:00 10,4 5,0 14 8 WSW 1023,1 45
19.10.2018 15:00:00 10,0 5,6 11 6 SW 1023,6 50
19.10.2018 14:00:00 10,1 5,3 14 8 SW 1023,9 30
19.10.2018 13:00:00 9,9 5,9 11 6 SSW 1024,0 50
19.10.2018 12:00:00 9,4 6,3 11 6 S 1024,3 30
19.10.2018 11:00:00 8,9 6,5 7 4 S 1024,6 50
19.10.2018 10:00:00 6,4 4,7 7 4 S 1024,7 30
19.10.2018 09:00:00 3,0 1,8 7 4 SSE 1024,7 50
19.10.2018 08:00:00 2,5 1,3 11 6 SE 1024,3 50
19.10.2018 07:00:00 3,3 1,7 7 4 SSE 1024,2 50
19.10.2018 06:00:00 3,1 1,1 7 4 S 1024,1 50
19.10.2018 05:00:00 3,1 1,9 7 4 S 1024,4 50
19.10.2018 04:00:00 2,9 2,0 7 4 S 1024,6 50
19.10.2018 03:00:00 2,4 1,2 4 2 S 1024,5 50
19.10.2018 02:00:00 2,2 1,0 4 2 SSE 1024,5 50
19.10.2018 01:00:00 3,0 1,5 0 0 N 1024,4 50
19.10.2018 00:00:00 3,8 2,5 0 0 N 1024,3 50
18.10.2018 23:00:00 3,4 1,8 0 0 N 1024,4 50
18.10.2018 22:00:00 6,6 3,7 7 4 WNW 1024,2 50
18.10.2018 21:00:00 6,9 3,9 4 2 W 1023,7 50
18.10.2018 20:00:00 6,7 3,8 7 4 W 1023,3 19
18.10.2018 19:00:00 7,2 3,8 7 4 W 1022,9 50
18.10.2018 18:00:00 8,7 3,3 11 6 W 1022,4 50
18.10.2018 17:00:00 10,9 0,9 14 8 NW 1021,7 45
18.10.2018 16:00:00 12,0 1,9 11 6 WNW 1021,5 50
18.10.2018 15:00:00 12,5 2,4 14 8 NW 1021,3 40
18.10.2018 14:00:00 12,7 2,5 14 8 NW 1021,2 50
18.10.2018 13:00:00 12,1 3,1 11 6 WNW 1021,2 50
18.10.2018 12:00:00 11,7 4,0 14 8 NNW 1021,2 50
18.10.2018 11:00:00 10,5 4,6 14 8 NW 1021,2 50
18.10.2018 10:00:00 9,5 7,3 11 6 WNW 1020,6 40
18.10.2018 09:00:00 8,2 7,4 7 4 W 1020,1 50
18.10.2018 08:00:00 7,5 6,9 7 4 W 1019,4 17
18.10.2018 07:00:00 8,8 8,0 7 4 W 1018,9 23

tt = Température de l'air
td = dewpoint
ff = Vitesse du vent
dd = Direction du vent
ppp = reduced air pressure
vv = visibility

stations d'obs. à proximité